FW0633 Weather Reports


Display with metric or nautical units.
time (UTC)temp
F
wind
direction
speed
MPH
gust
MPH
rain 1hr
in
rain 24hr
in
rain mn
in
humidity
%
barometer
mb
20260506141526 51 258 0.0 1.0 0.00 0.00 0.00 53 1035.7
20260506140005 48 259 0.0 1.0 0.00 0.00 0.00 58 1035.5
20260506134504 45 259 0.0 1.0 0.00 0.00 0.00 62 1035.5
20260506133004 42 280 0.0 1.0 0.00 0.00 0.00 65 1035.2
20260506131504 40 271 0.0 1.0 0.00 0.00 0.00 68 1035.1
20260506130004 39 273 0.0 1.0 0.00 0.00 0.00 70 1034.9
20260506124504 38 244 0.0 1.0 0.00 0.00 0.00 71 1034.9
20260506123004 38 283 0.0 1.0 0.00 0.00 0.00 71 1034.6
20260506121504 38 279 0.0 1.0 0.00 0.00 0.00 71 1034.4
20260506120005 37 255 0.0 1.0 0.00 0.00 0.00 71 1034.5
20260506114504 38 246 0.0 1.0 0.00 0.00 0.00 70 1034.5
20260506113004 38 207 0.0 1.0 0.00 0.00 0.00 70 1034.5
20260506111504 39 0 0.0 0.0 0.00 0.00 0.00 68 1034.3
20260506110004 39 235 0.0 1.0 0.00 0.00 0.00 68 1034.3
20260506104504 40 275 0.0 1.0 0.00 0.00 0.00 66 1034.2
20260506103003 39 266 0.0 1.0 0.00 0.00 0.00 67 1034.0
20260506101503 40 281 0.0 1.0 0.00 0.00 0.00 67 1034.0
20260506100004 39 289 0.0 2.0 0.00 0.00 0.00 67 1034.0
20260506094504 40 284 0.0 1.0 0.00 0.00 0.00 66 1034.0
20260506093005 39 281 0.0 1.0 0.00 0.00 0.00 67 1034.0
20260506091525 40 288 0.0 1.0 0.00 0.00 0.00 66 1033.8
20260506090004 40 239 0.0 1.0 0.00 0.00 0.00 65 1033.7
20260506084525 40 292 0.0 1.0 0.00 0.00 0.00 65 1033.6
20260506083004 40 263 0.0 1.0 0.00 0.00 0.00 63 1033.6
20260506081503 41 247 0.0 1.0 0.00 0.00 0.00 63 1033.6
20260506073004 42 285 0.0 1.0 0.00 0.00 0.00 60 1033.8
20260506071525 43 290 0.0 1.0 0.00 0.00 0.00 59 1033.7
20260506061503 43 260 0.0 1.0 0.00 0.00 0.00 58 1033.3
20260506044503 47 0 0.0 0.0 0.00 0.00 0.00 53 1032.9
20260506043004 48 277 0.0 1.0 0.00 0.00 0.00 51 1032.8
20260506041506 48 278 0.0 1.0 0.00 0.00 0.00 50 1032.7
20260506040006 49 268 0.0 1.0 0.00 0.00 0.00 49 1032.6
20260506034527 49 285 0.0 1.0 0.00 0.00 0.00 49 1032.3
20260506033006 50 290 0.0 1.0 0.00 0.00 0.00 48 1032.0
20260506031505 50 288 0.0 1.0 0.00 0.00 0.00 47 1031.7
20260506030006 51 278 0.0 1.0 0.00 0.00 0.00 46 1031.5
20260506024506 52 239 0.0 1.0 0.00 0.00 0.00 45 1031.3
20260506023005 52 240 0.0 2.0 0.00 0.00 0.00 44 1031.0
20260506021506 53 266 1.0 4.0 0.00 0.00 0.00 43 1030.7
20260506020006 54 257 1.0 4.0 0.00 0.00 0.00 42 1030.5
20260506014506 55 262 2.0 8.0 0.00 0.00 0.00 41 1030.3
20260506013006 56 247 2.0 7.0 0.00 0.00 0.00 39 1030.1
20260506011505 58 250 2.0 5.0 0.00 0.00 0.00 38 1030.0
20260506010005 57 265 3.0 8.0 0.00 0.00 0.00 38 1029.8
20260506004506 59 231 2.0 6.0 0.00 0.00 0.00 37 1029.8
20260506003005 60 227 2.0 7.0 0.00 0.00 0.00 36 1029.7
20260506001505 57 251 2.0 5.0 0.00 0.00 0.00 39 1029.5
20260506000026 58 252 2.0 8.0 0.00 0.00 0.00 37 1029.3
20260505234505 59 247 2.0 7.0 0.00 0.00 0.00 36 1029.2
20260505233027 60 236 4.0 11.0 0.00 0.00 0.00 35 1029.1
20260505231505 59 233 3.0 8.0 0.00 0.00 0.00 33 1028.9
20260505230005 61 246 3.0 9.0 0.00 0.00 0.00 31 1028.9
20260505224505 62 244 2.0 8.0 0.00 0.00 0.00 31 1028.9
20260505223026 63 231 3.0 9.0 0.00 0.00 0.00 30 1029.1
20260505221505 63 217 4.0 18.0 0.00 0.00 0.00 28 1029.2
20260505220005 63 259 3.0 9.0 0.00 0.00 0.00 30 1029.3
20260505214505 62 241 4.0 14.0 0.00 0.00 0.00 32 1029.4
20260505213005 62 230 4.0 11.0 0.00 0.00 0.00 35 1029.6